User: anonymous   Login
Location: Petrozavodsk
(61.7857°N, 34.3593°E)
Time: 22:03:25
(UTC+03:00)
Language:

Terra - Orbit

View from above orbital plane
View from above orbital plane
View from above satellite
View from above satellite

Ground track
Ground track

The orbit data is extracted from the following two-line orbital elements,

1 25994U 99068A   19083.21785702  .00000344  00000-0  86338-4 0  9997
2 25994  98.2105 159.0135 0001456 111.5930 248.5432 14.57111904 24609
Epoch (UTC): 24 March 2019 05:13:42
Eccentricity: 0.0001456
inclination: 98.2105°
perigee height: 701 km
apogee height: 703 km
right ascension of ascending node: 159.0135°
argument of perigee: 111.5930°
revolutions per day: 14.57111904
mean anomaly at epoch: 248.5432°
orbit number at epoch: 2460

The dashed part of the orbit path shows where the satellite is in the earth's shadow,  

DLR